Weather History for Birmingham, AL

Change the Weather History Date:

Wednesday, March 21, 2012

  Actual Average Record
Temperature  
Mean Temperature 74 °F 56 °F  
Max Temperature 81 °F 68 °F 90 °F (1907)
Min Temperature 66 °F 45 °F 19 °F (1965)
Degree Days  
Heating Degree Days 0 9  
Month to date heating degree days 86 241  
Since 1 July heating degree days 1849 2431  
Cooling Degree Days 9 1  
Month to date cooling degree days 82 11  
Year to date cooling degree days 91 15  
Growing Degree Days 24 (Base 50)    
Moisture  
Dew Point 56 °F    
Average Humidity 58    
Maximum Humidity 73    
Minimum Humidity 42    
Precipitation  
Precipitation 0.00 in 0.17 in 2.88 in (1929)
Month to date precipitation 2.75 3.59  
Year to date precipitation 11.61 12.96  
Snow  
Snow 0.00 in 0.00 in - ()
Month to date snowfall 0.0 0.4  
Since 1 July snowfall T 1.2  
Snow Depth 0.00 in    
Sea Level Pressure  
Sea Level Pressure 30.08 in    
Wind  
Wind Speed 9 mph (SE)    
Max Wind Speed 18 mph    
Max Gust Speed 24 mph    
Visibility 10 miles    
Events      
T = Trace of Precipitation, MM = Missing Value Source: NWS Daily Summary

Daily Weather History Graph

Daily Weather History Graph

Search for Another Location

Airport:

Trip Planner

Search our weather history database for the weather conditions in past years. The results will help you decide how hot, cold, wet, or windy it might be!

Date:

Astronomy

Mar. 21, 2012 Rise Set
Actual Time 6:48 AM CDT 6:59 PM CDT
Civil Twilight 6:23 AM CDT 7:24 PM CDT
Nautical Twilight 5:54 AM CDT 7:53 PM CDT
Astronomical Twilight 5:25 AM CDT 8:23 PM CDT
Moon 5:58 AM CDT (3/21) 6:25 PM CDT (3/21)
Length of Visible Light 13h 00m
Length of Day
12h 11m
Waning Crescent, 1% of the Moon is Illuminated
Mar 21
Waning Crescent
Mar 22
New
Mar 30
First Quarter
Apr 6
Full
Apr 13
Last Quarter

Hourly Weather History & Observations

Time (CDT) Temp. Heat Index Dew Point Humidity Pressure Visibility Wind Dir Wind Speed Gust Speed Precip Events Conditions
12:53 AM 72.0 °F - 53.1 °F 51% 30.07 in 10.0 mi SE 4.6 mph - N/A   Clear
1:53 AM 71.1 °F - 54.0 °F 55% 30.08 in 10.0 mi SE 6.9 mph - N/A   Clear
2:53 AM 70.0 °F - 54.0 °F 57% 30.07 in 10.0 mi ESE 5.8 mph - N/A   Clear
3:53 AM 69.1 °F - 54.0 °F 58% 30.06 in 10.0 mi ESE 6.9 mph - N/A   Clear
4:53 AM 68.0 °F - 55.0 °F 63% 30.07 in 10.0 mi ESE 5.8 mph - N/A   Clear
5:53 AM 66.9 °F - 55.9 °F 68% 30.08 in 10.0 mi ESE 6.9 mph - N/A   Clear
6:53 AM 66.0 °F - 57.0 °F 73% 30.10 in 10.0 mi ESE 6.9 mph - N/A   Clear
7:53 AM 66.0 °F - 57.9 °F 75% 30.12 in 10.0 mi ESE 6.9 mph - N/A   Clear
8:53 AM 69.1 °F - 59.0 °F 70% 30.12 in 10.0 mi SE 9.2 mph - N/A   Clear
9:53 AM 72.0 °F - 60.1 °F 66% 30.12 in 10.0 mi SE 11.5 mph 23.0 mph N/A   Partly Cloudy
10:53 AM 75.0 °F - 60.1 °F 60% 30.12 in 10.0 mi SE 11.5 mph 18.4 mph N/A   Partly Cloudy
11:53 AM 78.1 °F - 59.0 °F 52% 30.10 in 10.0 mi SE 12.7 mph 21.9 mph N/A   Mostly Cloudy
12:53 PM 79.0 °F - 59.0 °F 50% 30.08 in 10.0 mi Variable 6.9 mph 17.3 mph N/A   Mostly Cloudy
1:53 PM 80.1 °F 80.4 °F 57.0 °F 45% 30.06 in 10.0 mi ESE 12.7 mph 20.7 mph N/A   Scattered Clouds
2:53 PM 79.0 °F - 55.0 °F 44% 30.06 in 10.0 mi SE 13.8 mph 18.4 mph N/A   Mostly Cloudy
3:53 PM 80.1 °F 80.2 °F 55.9 °F 43% 30.05 in 10.0 mi SSE 10.4 mph - N/A   Scattered Clouds
4:53 PM 81.0 °F 80.8 °F 55.9 °F 42% 30.02 in 10.0 mi SE 10.4 mph - N/A   Partly Cloudy
5:53 PM 79.0 °F - 54.0 °F 42% 30.02 in 10.0 mi ESE 9.2 mph 21.9 mph N/A   Clear
6:53 PM 77.0 °F - 54.0 °F 45% 30.04 in 10.0 mi ESE 4.6 mph - N/A   Clear
7:53 PM 75.9 °F - 55.0 °F 48% 30.04 in 10.0 mi East 8.1 mph - N/A   Clear
8:53 PM 75.0 °F - 55.9 °F 51% 30.06 in 10.0 mi ESE 6.9 mph - N/A   Clear
9:53 PM 73.9 °F - 55.9 °F 53% 30.09 in 10.0 mi ESE 6.9 mph - N/A   Clear
10:53 PM 73.9 °F - 55.9 °F 53% 30.10 in 10.0 mi SE 5.8 mph - N/A   Partly Cloudy
11:53 PM 73.9 °F - 55.9 °F 53% 30.11 in 10.0 mi SSE 9.2 mph - N/A   Mostly Cloudy